Погода в Чемлыже

Россия / Брянская область     52°14′43″N   34°25′15″E
В апреле 2022 года жителям России запретили посещать сайт meteo.paraplan.net по решению Генеральной прокуратуры. Аудитория сайта уменьшилась в 10 раз. Владельцы сайта не видят смысла в поддержке погодного сервера в таких условиях. Сайт будет закрыт в октябре.
темп.,
°C
ветер,
м/с
пор.,
м/с
влажн.,
%
обл.,
%
осадки,
мм/ч
давл.,
гПа
погр.,
м
3 октября, пн
пн300:00+10юз61093100 0.3 992513
03:00+8юз61090100 0.3 992732
06:00+6юз71193100 0.1 993837
09:00+6юз71091100 0.3 9941093
12:00+6юз81293100 0.4 9951207
15:00+6юз91593100 1.7 9971406
18:00+7юз91789100 1.8 9991319
21:00+9ююз91586100 2.7 10001134
4 октября, вт
вт400:00+9ю101586100 0.1 10011063
03:00+6зюз61093100 3.1 1003726
06:00+6ююз61191100 1.9 1004942
09:00+7ююз81386100 2.1 1005982
12:00+7ююз81290100 0.5 10071247
15:00+7ююз81290100 2.3 10081170
18:00+8юз71188100 0.6 10091076
21:00+7юз6993100 1.7 1010930
5 октября, ср
ср500:00+7зюз5993100 1.3 1011945
03:00+7зюз4889100 2.1 1012791
06:00+7зюз4993100 0.3 1014577
09:00+7з5988100 0.6 1016753
12:00+9зсз697599 0.4 10171156
15:00+9зсз5874100 0.7 10191084
18:00+8зсз368493 0.2 1020191
21:00+6з399477 0.2 1022227
6 октября, чт
чт600:00+8зюз3991100 0.0 1022312
03:00+7зюз499463 0.0 1022270
06:00+7зюз41093100 0.0 1021253
09:00+9зюз4108999 0.0 1021320
12:00+12зюз51080100 0.0 1021469
15:00+14зюз697344 0.0 1020628
18:00+12юз49861 0.0 1020160
21:00+10зюз4129262 0.0 1021259
7 октября, пт
пт700:00+10з4119595 0.0 1022243
03:00+9зсз499723 0.0 1023250
06:00+8зсз389718 0.0 1024203
09:00+9зсз47860 0.0 1025282
12:00+13зсз56650 0.0 1025750
15:00+15зсз56560 0.0 1025971
18:00+10сз33760 0.0 102632
21:00+8с33920 0.0 102745